Regional Weather Roundup
Issued by NWS

Home | Current Version | Previous Version | Graphics & Text | Print | Product List | Glossary On
Versions: 1 2 3 4 5 6 7 8 9 10 11 12 13 14 15 16 17 18 19 20 21 22 23 24 25 26 27 28 29 30 31 32 33 34 35 36 37 38 39 40 41 42 43 44 45 46 47 48 49 50
000
ASUS43 KTOP 290559
RWRKS

WEATHER ROUNDUP FOR KANSAS
NATIONAL WEATHER SERVICE GOODLAND KS
100 AM CDT FRI APR 29 2016

NOTE:  "FAIR" INDICATES FEW OR NO CLOUDS BELOW 12,000 FEET WITH NO
SIGNIFICANT WEATHER AND/OR OBSTRUCTIONS TO VISIBILITY.

KSZ001>006-013>018-027>032-041>047-290700-
NORTHWEST KANSAS

CITY           SKY/WX    TMP DP  RH WIND       PRES   REMARKS
GOODLAND       CLOUDY    42  38  85 E13       30.05F
6HR MIN TEMP:  41; 6HR MAX TEMP:  50;

HAYS           CLOUDY    46  36  66 NE14      30.06S
HILL CITY      CLOUDY    46  42  86 NE9       30.08F
6HR MIN TEMP:  45; 6HR MAX TEMP:  57;

RUSSELL        CLOUDY    48  43  82 NE12      30.05S
6HR MIN TEMP:  47; 6HR MAX TEMP:  58;

$$

KSZ061>065-074>080-084>089-290700-
SOUTHWEST KANSAS

CITY           SKY/WX    TMP DP  RH WIND       PRES   REMARKS
DODGE CITY     CLOUDY    50  43  77 NE22      29.95F
6HR MIN TEMP:  50; 6HR MAX TEMP:  59;

ELKHART          N/A     46  42  86 N10         N/A
GARDEN CITY    CLOUDY    48  41  76 NE23G29   29.97S
6HR MIN TEMP:  48; 6HR MAX TEMP:  58;

GREAT BEND     CLOUDY    50  39  66 E16       30.04F
LIBERAL        CLOUDY    50  43  76 NW14G20   29.97R THUNDER
$$

KSZ066>073-081>083-090>101-290700-
SOUTHEAST KANSAS

CITY           SKY/WX    TMP DP  RH WIND       PRES   REMARKS
CHANUTE        CLOUDY    56  47  71 N16       30.03R
6HR MIN TEMP:  56; 6HR MAX TEMP:  67;

COFFEYVILLE    CLOUDY    59  51  75 N9        29.98S
6HR MIN TEMP:  57; 6HR MAX TEMP:  68;

HUTCHINSON     LGT RAIN  52  48  86 NE10      30.04F
6HR MIN TEMP:  52; 6HR MAX TEMP:  62; 6HR PCP:  0.15;

MEDICINE LODGE   N/A     53  50  89 E15G23    29.99F
NEWTON         CLOUDY    52  43  71 NE10G23   30.07S
PARSONS        CLOUDY    58  52  80 N10       30.01R
6HR MIN TEMP:  56; 6HR MAX TEMP:  66;

WICHITA INTL   LGT RAIN  56  49  77 NE17G26   30.00F
6HR MIN TEMP:  56; 6HR MAX TEMP:  66; 6HR PCP: TRACE;

WICHITA JABRA  CLOUDY    53  49  86 NE15      30.01F
6HR MIN TEMP:  53; 6HR MAX TEMP:  63; 6HR PCP: TRACE;

WINFIELD       CLOUDY    59  50  72 NE13G21   30.00R
6HR MIN TEMP:  59; 6HR MAX TEMP:  68;

$$

KSZ007>012-019>026-033>040-048>060-102>105-290700-
NORTHEAST KANSAS

CITY           SKY/WX    TMP DP  RH WIND       PRES   REMARKS
CONCORDIA      CLOUDY    49  42  77 NE8       30.10F
6HR MIN TEMP:  48; 6HR MAX TEMP:  54;

EMPORIA        MOCLDY    52  45  77 N9        30.07R
6HR MIN TEMP:  52; 6HR MAX TEMP:  62;

LAWRENCE       MOCLDY    50  46  86 N7        30.09S
6HR MIN TEMP:  49; 6HR MAX TEMP:  59;

MANHATTAN      CLOUDY    53  44  71 N5        30.10S
6HR MIN TEMP:  50; 6HR MAX TEMP:  59;

OLATHE IND     CLOUDY    50  46  86 N8        30.09R
6HR MIN TEMP:  49; 6HR MAX TEMP:  59;

OLATHE EXE     CLOUDY    51  44  77 N7        30.08R
6HR MIN TEMP:  50; 6HR MAX TEMP:  59;

SALINA         CLOUDY    53  44  71 NE10      30.06F
6HR MIN TEMP:  53; 6HR MAX TEMP:  61;

TOPEKA BILLARD CLOUDY    51  45  79 N9        30.08F
6HR MIN TEMP:  50; 6HR MAX TEMP:  59;

TOPEKA FORBES  CLOUDY    52  45  77 N6        30.08S
6HR MIN TEMP:  52; 6HR MAX TEMP:  61;

$$




USA.gov is the U.S. government's official web portal to all federal, state and local government web resources and services.